When you browse on this site, cookies collect data to enhance your experience and personalize the content and advertising you see.
Visit our Privacy Policy to learn more. By continuing to use the site, you agree to this use of cookies and data.
  • In Portugal
  • List of Countries
  • For 7 days
  • Water Temperature
  • Weather Map
  • Weather Widgets
  • user-avatar
    Login

    Hourly Weather Kabul

    Today, 27 February, Thursday

    Time Temperature Precipitation Wind Pressure Humidity
    00:00 +9°C° 0 mm 1 mps 608 mmHg 57%
    01:00 +8°C° 0 mm 0 mps 608 mmHg 59%
    02:00 +7°C° 0 mm 0 mps 608 mmHg 61%
    03:00 +7°C° 0 mm 0 mps 607 mmHg 62%
    04:00 +7°C° 0 mm 0 mps 607 mmHg 63%
    05:00 +6°C° 0 mm 0 mps 606 mmHg 64%
    06:00 +7°C° 0 mm 0 mps 607 mmHg 63%
    07:00 +7°C° 0 mm 0 mps 608 mmHg 62%
    08:00 +8°C° 0 mm 0 mps 608 mmHg 62%
    09:00 +10°C° 0 mm 1 mps 609 mmHg 58%
    10:00 +11°C° 0 mm 1 mps 609 mmHg 55%
    11:00 +12°C° 0 mm 1 mps 609 mmHg 51%
    12:00 +13°C° 0 mm 1 mps 609 mmHg 50%
    13:00 +13°C° 0 mm 1 mps 609 mmHg 50%
    14:00 +14°C° 0 mm 1 mps 609 mmHg 49%
    15:00 +13°C° 0.1 mm 1 mps 609 mmHg 52%
    16:00 +13°C° 0.1 mm 2 mps 608 mmHg 55%
    17:00 +12°C° 0 mm 3 mps 608 mmHg 54%
    18:00 +11°C° 0.4 mm 3 mps 608 mmHg 60%
    19:00 +10°C° 0.4 mm 2 mps 608 mmHg 66%
    20:00 +9°C° 0.4 mm 2 mps 608 mmHg 72%
    21:00 +8°C° 0.4 mm 2 mps 607 mmHg 76%
    22:00 +8°C° 0.4 mm 2 mps 607 mmHg 81%
    23:00 +7°C° 0.4 mm 2 mps 607 mmHg 85%

    Tomorrow, 28 February, Friday

    Time Temperature Precipitation Wind Pressure Humidity
    00:00 +7°C° 0.4 mm 2 mps 607 mmHg 87%
    01:00 +8°C° 0.4 mm 1 mps 606 mmHg 89%
    02:00 +7°C° 0.4 mm 1 mps 606 mmHg 90%
    03:00 +7°C° 0.6 mm 1 mps 606 mmHg 91%
    04:00 +7°C° 0.6 mm 1 mps 606 mmHg 92%
    05:00 +6°C° 0.6 mm 0 mps 605 mmHg 93%
    06:00 +7°C° 0.3 mm 1 mps 606 mmHg 92%
    07:00 +7°C° 0.3 mm 1 mps 606 mmHg 91%
    08:00 +7°C° 0.3 mm 1 mps 607 mmHg 90%
    09:00 +8°C° 0.3 mm 1 mps 607 mmHg 84%
    10:00 +9°C° 0.3 mm 1 mps 607 mmHg 79%
    11:00 +9°C° 0.3 mm 1 mps 608 mmHg 74%
    12:00 +8°C° 0.4 mm 2 mps 607 mmHg 71%
    13:00 +9°C° 0.4 mm 2 mps 607 mmHg 69%
    14:00 +9°C° 0.4 mm 2 mps 607 mmHg 66%
    15:00 +9°C° 0.3 mm 2 mps 607 mmHg 68%
    16:00 +8°C° 0.3 mm 2 mps 606 mmHg 70%
    17:00 +8°C° 0.3 mm 2 mps 606 mmHg 72%
    18:00 +8°C° 0.2 mm 2 mps 606 mmHg 73%
    19:00 +7°C° 0.2 mm 2 mps 607 mmHg 75%
    20:00 +8°C° 0.2 mm 1 mps 607 mmHg 76%
    21:00 +7°C° 0 mm 1 mps 607 mmHg 78%
    22:00 +7°C° 0 mm 1 mps 607 mmHg 80%
    23:00 +6°C° 0 mm 1 mps 607 mmHg 81%

    Day after tomorrow, 29 February, Saturday

    Time Temperature Precipitation Wind Pressure Humidity
    00:00 +6°C° 0.1 mm 1 mps 606 mmHg 83%
    01:00 +6°C° 0.1 mm 1 mps 606 mmHg 84%
    02:00 +6°C° 0.1 mm 1 mps 606 mmHg 85%
    03:00 +6°C° 0.2 mm 1 mps 606 mmHg 85%
    04:00 +6°C° 0.2 mm 1 mps 606 mmHg 84%
    05:00 +4°C° 0.2 mm 0 mps 605 mmHg 84%
    06:00 +5°C° 0 mm 0 mps 606 mmHg 82%
    07:00 +5°C° 0 mm 0 mps 606 mmHg 80%
    08:00 +5°C° 0 mm 0 mps 607 mmHg 77%
    09:00 +6°C° 0.1 mm 0 mps 607 mmHg 74%
    10:00 +7°C° 0.1 mm 0 mps 607 mmHg 70%
    11:00 +8°C° 0.1 mm 0 mps 607 mmHg 66%
    12:00 +8°C° 0.1 mm 0 mps 607 mmHg 62%
    13:00 +9°C° 0.1 mm 0 mps 607 mmHg 58%
    14:00 +10°C° 0.1 mm 0 mps 607 mmHg 54%
    15:00 +10°C° 0 mm 0 mps 607 mmHg 52%
    16:00 +10°C° 0 mm 0 mps 607 mmHg 50%
    17:00 +11°C° 0 mm 1 mps 607 mmHg 48%
    18:00 +10°C° 0 mm 1 mps 607 mmHg 54%
    19:00 +9°C° 0 mm 1 mps 608 mmHg 60%
    20:00 +9°C° 0 mm 1 mps 608 mmHg 65%
    21:00 +8°C° 0 mm 1 mps 608 mmHg 67%
    22:00 +8°C° 0 mm 1 mps 608 mmHg 69%
    23:00 +7°C° 0 mm 1 mps 608 mmHg 71%

    1 March, Sunday

    Time Temperature Precipitation Wind Pressure Humidity
    00:00 +7°C° 0 mm 1 mps 608 mmHg 72%
    01:00 +5°C° 0 mm 0 mps 607 mmHg 72%
    02:00 +5°C° 0 mm 0 mps 607 mmHg 72%
    03:00 +5°C° 0 mm 0 mps 607 mmHg 73%
    04:00 +4°C° 0 mm 0 mps 607 mmHg 73%
    05:00 +4°C° 0 mm 0 mps 606 mmHg 73%
    06:00 +4°C° 0 mm 0 mps 607 mmHg 71%
    07:00 +5°C° 0 mm 0 mps 607 mmHg 68%
    08:00 +5°C° 0 mm 0 mps 607 mmHg 65%
    09:00 +6°C° 0 mm 0 mps 608 mmHg 62%
    10:00 +8°C° 0 mm 1 mps 608 mmHg 58%
    11:00 +9°C° 0 mm 1 mps 608 mmHg 54%
    12:00 +10°C° 0 mm 1 mps 608 mmHg 52%
    13:00 +11°C° 0 mm 1 mps 608 mmHg 49%
    14:00 +12°C° 0 mm 1 mps 608 mmHg 47%
    15:00 +12°C° 0 mm 1 mps 608 mmHg 46%
    16:00 +12°C° 0 mm 1 mps 608 mmHg 45%
    17:00 +12°C° 0 mm 1 mps 608 mmHg 44%
    18:00 +12°C° 0 mm 1 mps 608 mmHg 47%
    19:00 +11°C° 0 mm 1 mps 608 mmHg 51%
    20:00 +10°C° 0 mm 1 mps 608 mmHg 54%
    21:00 +9°C° 0 mm 1 mps 608 mmHg 55%
    22:00 +9°C° 0 mm 1 mps 608 mmHg 55%
    23:00 +8°C° 0 mm 1 mps 608 mmHg 56%

    2 March, Monday

    Time Temperature Precipitation Wind Pressure Humidity
    00:00 +8°C° 0 mm 1 mps 608 mmHg 56%
    01:00 +8°C° 0 mm 1 mps 607 mmHg 56%
    02:00 +7°C° 0 mm 1 mps 607 mmHg 55%
    03:00 +7°C° 0 mm 1 mps 607 mmHg 55%
    04:00 +6°C° 0 mm 1 mps 606 mmHg 55%
    05:00 +6°C° 0 mm 1 mps 606 mmHg 55%
    06:00 +6°C° 0 mm 1 mps 606 mmHg 54%
    07:00 +7°C° 0 mm 1 mps 606 mmHg 52%
    08:00 +7°C° 0 mm 1 mps 607 mmHg 51%
    09:00 +8°C° 0 mm 1 mps 607 mmHg 47%
    10:00 +9°C° 0 mm 1 mps 607 mmHg 43%
    11:00 +11°C° 0 mm 1 mps 608 mmHg 39%
    12:00 +11°C° 0 mm 1 mps 608 mmHg 37%
    13:00 +12°C° 0 mm 1 mps 608 mmHg 35%
    14:00 +13°C° 0 mm 1 mps 608 mmHg 32%
    15:00 +13°C° 0 mm 1 mps 608 mmHg 32%
    16:00 +13°C° 0 mm 1 mps 608 mmHg 31%
    17:00 +13°C° 0 mm 1 mps 608 mmHg 30%
    18:00 +12°C° 0 mm 1 mps 608 mmHg 35%
    19:00 +10°C° 0 mm 0 mps 608 mmHg 40%
    20:00 +9°C° 0 mm 0 mps 608 mmHg 45%
    21:00 +9°C° 0 mm 0 mps 608 mmHg 46%
    22:00 +8°C° 0 mm 0 mps 608 mmHg 46%
    23:00 +9°C° 0 mm 1 mps 608 mmHg 46%

    3 March, Tuesday

    Time Temperature Precipitation Wind Pressure Humidity
    00:00 +8°C° 0 mm 1 mps 608 mmHg 47%
    01:00 +7°C° 0 mm 0 mps 608 mmHg 48%
    02:00 +6°C° 0 mm 0 mps 607 mmHg 49%
    03:00 +6°C° 0 mm 0 mps 607 mmHg 49%
    04:00 +7°C° 0 mm 1 mps 607 mmHg 50%
    05:00 +6°C° 0 mm 1 mps 606 mmHg 50%
    06:00 +7°C° 0 mm 1 mps 607 mmHg 49%
    07:00 +7°C° 0 mm 1 mps 607 mmHg 48%
    08:00 +7°C° 0 mm 1 mps 607 mmHg 47%
    09:00 +9°C° 0 mm 1 mps 608 mmHg 42%
    10:00 +10°C° 0 mm 1 mps 608 mmHg 38%
    11:00 +11°C° 0 mm 1 mps 608 mmHg 34%
    12:00 +12°C° 0 mm 1 mps 608 mmHg 33%
    13:00 +12°C° 0 mm 1 mps 608 mmHg 32%
    14:00 +13°C° 0 mm 1 mps 607 mmHg 31%
    15:00 +13°C° 0 mm 1 mps 607 mmHg 30%
    16:00 +13°C° 0 mm 1 mps 607 mmHg 29%
    17:00 +14°C° 0 mm 1 mps 607 mmHg 28%
    18:00 +13°C° 0 mm 1 mps 607 mmHg 33%
    19:00 +12°C° 0 mm 1 mps 606 mmHg 38%
    20:00 +10°C° 0 mm 0 mps 606 mmHg 43%
    21:00 +9°C° 0 mm 0 mps 606 mmHg 44%
    22:00 +10°C° 0 mm 1 mps 606 mmHg 46%
    23:00 +9°C° 0 mm 1 mps 606 mmHg 47%
    Show more